TimePDT,TemperatureF,Dew PointF,Humidity,Sea Level PressureIn,VisibilityMPH,Wind Direction,Wind SpeedMPH,Gust SpeedMPH,PrecipitationIn,Events,Conditions,WindDirDegrees,DateUTC
12:56 AM,60.1,28.0,30,30.05,10.0,Calm,Calm,-,N/A,,Clear,0,2013-07-19 07:56:00
1:56 AM,54.0,28.9,38,30.05,10.0,Calm,Calm,-,N/A,,Clear,0,2013-07-19 08:56:00
2:56 AM,55.0,30.0,38,30.05,10.0,South,4.6,-,N/A,,Clear,180,2013-07-19 09:56:00
3:56 AM,52.0,34.0,50,30.05,10.0,SSE,3.5,-,N/A,,Clear,160,2013-07-19 10:56:00
4:56 AM,52.0,34.0,50,30.06,10.0,South,4.6,-,N/A,,Clear,170,2013-07-19 11:56:00
5:56 AM,51.1,37.0,59,30.06,10.0,South,3.5,-,N/A,,Clear,170,2013-07-19 12:56:00
6:56 AM,57.9,35.1,42,30.06,10.0,SSE,3.5,-,N/A,,Clear,150,2013-07-19 13:56:00
7:56 AM,66.9,35.1,31,30.05,10.0,Calm,Calm,-,N/A,,Clear,0,2013-07-19 14:56:00
8:56 AM,73.9,30.0,20,30.05,10.0,Calm,Calm,-,N/A,,Clear,0,2013-07-19 15:56:00
9:56 AM,79.0,26.1,14,30.03,10.0,WNW,3.5,-,N/A,,Clear,300,2013-07-19 16:56:00
10:56 AM,84.0,21.0,10,30.01,10.0,North,9.2,-,N/A,,Clear,360,2013-07-19 17:56:00
11:56 AM,86.0,21.0,9,30.01,10.0,Variable,5.8,-,N/A,,Clear,0,2013-07-19 18:56:00
12:56 PM,89.1,21.9,9,29.99,10.0,North,12.7,16.1,N/A,,Clear,360,2013-07-19 19:56:00
1:56 PM,93.0,23.0,8,29.98,10.0,North,11.5,19.6,N/A,,Clear,10,2013-07-19 20:56:00
2:56 PM,93.9,25.0,8,29.96,10.0,NW,11.5,16.1,N/A,,Clear,320,2013-07-19 21:56:00
3:56 PM,93.9,26.1,9,29.95,10.0,NW,10.4,19.6,N/A,,Clear,320,2013-07-19 22:56:00
4:56 PM,93.9,23.0,8,29.94,10.0,NNW,12.7,19.6,N/A,,Clear,330,2013-07-19 23:56:00
5:56 PM,93.9,19.9,7,29.92,10.0,NNW,6.9,-,N/A,,Clear,340,2013-07-20 00:56:00
6:56 PM,91.9,21.0,8,29.91,10.0,NNW,15.0,-,N/A,,Clear,340,2013-07-20 01:56:00
7:56 PM,89.1,21.9,9,29.91,10.0,NNW,10.4,-,N/A,,Clear,340,2013-07-20 02:56:00
8:56 PM,81.0,33.1,18,29.93,10.0,NNW,10.4,-,N/A,,Clear,340,2013-07-20 03:56:00
9:56 PM,78.1,30.0,17,29.95,10.0,NNW,8.1,-,N/A,,Clear,340,2013-07-20 04:56:00
10:56 PM,73.0,27.0,18,29.96,10.0,NNW,8.1,-,N/A,,Clear,330,2013-07-20 05:56:00
11:56 PM,68.0,19.0,15,29.97,10.0,NNW,3.5,-,N/A,,Clear,330,2013-07-20 06:56:00